Details From YBCS - Cairns
To YHID - Horn Island
Flight Number -
Tags decoded
Created
Modified
Stats Distance 428 nm / 793 km
Max Altitude 0 ft / 0 m
Waypoints 2
Social Downloads 1
Likes 0
Share

Download

Looking for another format? Having issues loading an existing format? Contact us
Advertisement - Login to hide

Notes

Requested: YBCS YHID

Route

YBCS YHID

ID Type Via Altitude (ft/m) Position (lat/lon) Dist (leg/tot) Name
O YBCS APT - 0 / 0 -16.87890 / 145.74900 - / 0 nm Cairns
O YHID APT - 0 / 0 -10.58570 / 142.29000 428 / 428 nm Horn Island

Altitude Profile

Advertisement - Login to hide

Weather


0- 5 10 15 20 25 30 35+ Temperature / °C

Clouds and Precipitation
Forecast for 2020-10-28 18:00 UTC. Updated an hour ago

Ground ~20,000 ft ~40,000 ft Winds

YBCS

Details ICAO YBCS (CNS)
Name Cairns
Region Australia
Timezone Australia/Brisbane (UTC+10.0)
Stats Elevation 9 ft / 3 m (AMSL)
Location -16.878900° 145.749000°
Runways 1
Magnetic Variation 6.619° E

METAR

YBCS 281600Z AUTO 17002KT 9999 // NCD 23/21 Q1011 NOSIG

Decode

TAF

TAF YBCS 281101Z 2812/2912 16007KT 9999 FEW025 FM290000 05010KT 9999 SCT030 FM290900 16007KT 9999 SCT020

Decode

Departure Runways

ID Width Length Bearing (true/mag) Surface Threshold Overrun Markings Lighting
15 148 ft / 45 m 10,395 ft / 3,168 m 156.62° / 150.00° ASPHALT 0 ft / 0 m 328 ft / 100 m PREC-APP CENTERLINE EDGE THRESHOLD CALVERT TDZ
33 148 ft / 45 m 10,395 ft / 3,168 m 336.61° / 329.99° ASPHALT 0 ft / 0 m 0 ft / 0 m UK-APP CENTERLINE EDGE THRESHOLD

YHID

Details ICAO YHID (HID)
Name Horn Island
Region Australia
Timezone Australia/Brisbane (UTC+10.0)
Stats Elevation 41 ft / 12 m (AMSL)
Location -10.585700° 142.290000°
Runways 2
Magnetic Variation 4.748° E

METAR

YHID 281600Z AUTO 15002KT 9999 // NCD 26/23 Q1011

Decode

TAF

TAF AMD YHID 281225Z 2812/2912 13010KT 9999 BKN017 FM290000 07008KT 9999 SCT020 FM290900 11005KT 9999 SCT012 BKN020

Decode

Destination Runways

ID Width Length Bearing (true/mag) Surface Threshold Overrun Markings Lighting
08 98 ft / 30 m 4,562 ft / 1,390 m 84.71° / 79.96° ASPHALT 0 ft / 0 m 0 ft / 0 m APP CENTERLINE EDGE THRESHOLD
14 75 ft / 23 m 4,059 ft / 1,237 m 140.12° / 135.37° ASPHALT 167 ft / 51 m 184 ft / 56 m VISUAL CENTERLINE EDGE THRESHOLD
26 98 ft / 30 m 4,562 ft / 1,390 m 264.71° / 259.96° ASPHALT 456 ft / 139 m 144 ft / 44 m APP CENTERLINE EDGE THRESHOLD
32 75 ft / 23 m 4,059 ft / 1,237 m 320.12° / 315.37° ASPHALT 0 ft / 0 m 0 ft / 0 m VISUAL CENTERLINE EDGE THRESHOLD

Popular Alternatives